Location: Avon
(37.7514°N, 90.2235°W)
Time: 17:57:56
(UTC+00:00)

Explorer 11/Cluster Stage 4 - Pass Details

Date: 14 October 2025
Orbit: 463 x 1182 km, 28.8° (Epoch: 13 November)

Event Time Altitude Azimuth Distance (km) Brightness Sun altitude
Exits shadow 10:08:26 12° 196° (SSW) 2,827 9.2 -24.5°
Drops below altitude 10° 10:10:08 10° 183° (S) 3,017 9.4 -24.1°
Sets 10:15:05 0° 157° (SSE) 4,040 10.4 -23.2°
